This is the latest recevied weather packets stored in our database for station/object KC3ROS. If no packets are shown the sender has not sent any weather packets the latest 10 day(s).
| Time | Temp. | Humidity | Pressure | Rain* | Wind** | Luminosity | Snow |
|---|---|---|---|---|---|---|---|
| 1777979178 | 16.67° C | 72% | 1007 hPa | 0 mm | - | 39 W/m² | - |
| 1777978876 | 16.67° C | 72% | 1006.9 hPa | 0 mm | - | 31 W/m² | - |
| 1777978572 | 16.67° C | 73% | 1006.9 hPa | 0 mm | - | 22 W/m² | - |
| 1777978268 | 16.67° C | 73% | 1006.7 hPa | 0 mm | - | 17 W/m² | - |
| 1777977965 | 16.67° C | 73% | 1006.8 hPa | 0 mm | - | 13 W/m² | - |
| 1777977663 | 16.11° C | 74% | 1006.8 hPa | 0 mm | - | 10 W/m² | - |
| 1777977359 | 16.67° C | 73% | 1006.6 hPa | 0 mm | - | 7 W/m² | - |
| 1777977056 | 16.67° C | 73% | 1006.5 hPa | 0 mm | - | 5 W/m² | - |
| 1777976754 | 16.67° C | 73% | 1006.3 hPa | 0 mm | - | 4 W/m² | - |
| 1777976451 | 16.67° C | 73% | 1006.6 hPa | 0 mm | - | 3 W/m² | - |
| 1777976150 | 16.67° C | 73% | 1006.3 hPa | 0 mm | - | 2 W/m² | - |
| 1777975846 | 16.67° C | 72% | 1006.3 hPa | 0 mm | - | 1 W/m² | - |
| 1777975542 | 16.67° C | 73% | 1006.3 hPa | 0 mm | - | 0 W/m² | - |
| 1777975239 | 16.67° C | 72% | 1006.3 hPa | 0 mm | - | 0 W/m² | - |
| 1777974935 | 16.67° C | 72% | 1006.3 hPa | 0 mm | - | 0 W/m² | - |
| 1777974632 | 16.67° C | 73% | 1006.2 hPa | 0 mm | - | 0 W/m² | - |
| 1777974329 | 16.67° C | 73% | 1005.9 hPa | 0 mm | - | 0 W/m² | - |
| 1777974025 | 16.67° C | 74% | 1005.8 hPa | 0 mm | - | 0 W/m² | - |
| 1777973721 | 16.67° C | 73% | 1006 hPa | 0 mm | - | 0 W/m² | - |
| 1777973419 | 16.11° C | 74% | 1005.9 hPa | 0 mm | - | 0 W/m² | - |
| 1777973116 | 16.11° C | 74% | 1005.9 hPa | 0 mm | - | 0 W/m² | - |
| 1777972814 | 16.11° C | 74% | 1005.8 hPa | 0 mm | - | 0 W/m² | - |
| 1777972511 | 16.11° C | 74% | 1005.9 hPa | 0 mm | - | 0 W/m² | - |
| 1777972209 | 16.11° C | 74% | 1005.8 hPa | 0 mm | - | 0 W/m² | - |
| 1777971907 | 16.11° C | 75% | 1005.8 hPa | 0 mm | - | 0 W/m² | - |
* Rain latest hour (hover to see other rain measurements)
** Current wind speed in m/s (hover to see current wind gust speed)